DW3733 Weather Reports


Display with metric or nautical units.
time (UTC)temp
F
wind
direction
speed
MPH
gust
MPH
rain 1hr
in
rain 24hr
in
rain mn
in
humidity
%
barometer
mb
20260504001806 52 135 0.0 1.0 0.00 0.06 0.00 72 1019.3
20260504001307 52 6 0.0 1.0 0.00 0.06 0.00 72 1019.4
20260504000806 52 225 1.0 1.0 0.00 0.06 0.00 74 1019.4
20260504000307 52 225 1.0 1.0 0.00 0.06 0.00 74 1019.4
20260503235807 52 188 1.0 3.0 0.00 0.06 0.00 74 1019.5
20260503235307 51 270 0.0 1.0 0.00 0.06 0.00 74 1019.6
20260503234307 51 130 0.0 3.0 0.00 0.06 0.00 73 1019.7
20260503233808 51 90 2.0 3.0 0.00 0.06 0.00 73 1019.8
20260503233311 51 4 1.0 1.0 0.00 0.06 0.00 72 1019.8
20260503232807 52 90 0.0 1.0 0.00 0.06 0.00 72 1019.7
20260503232306 52 315 0.0 1.0 0.00 0.06 0.00 72 1019.9
20260503231809 52 102 2.0 3.0 0.00 0.06 0.00 72 1019.8
20260503230806 53 0 1.0 1.0 0.00 0.06 0.00 72 1020.0
20260503230306 53 90 0.0 1.0 0.00 0.06 0.00 70 1020.1
20260503225318 54 90 1.0 1.0 0.00 0.06 0.00 70 1020.1
20260503224816 54 94 0.0 1.0 0.00 0.06 0.00 70 1020.0
20260503224321 53 225 1.0 1.0 0.00 0.06 0.00 71 1020.0
20260503222817 52 11 1.0 2.0 0.00 0.06 0.00 74 1019.9
20260503222325 51 180 1.0 2.0 0.00 0.06 0.00 73 1019.9
20260503221317 52 0 1.0 3.0 0.00 0.06 0.00 72 1019.9
20260503220834 53 315 0.0 1.0 0.00 0.06 0.00 66 1020.0
20260503220317 53 315 0.0 1.0 0.00 0.06 0.00 66 1020.0
20260503215816 54 9 1.0 2.0 0.00 0.06 0.06 66 1020.0
20260503215316 54 0 0.0 0.0 0.00 0.06 0.06 66 1019.8
20260503214817 55 270 0.0 1.0 0.00 0.06 0.06 65 1019.9
20260503214317 55 128 1.0 1.0 0.00 0.06 0.06 65 1019.9
20260503213818 56 93 1.0 3.0 0.00 0.06 0.06 66 1019.9
20260503213318 56 270 0.0 2.0 0.00 0.06 0.06 67 1019.9
20260503212818 55 202 1.0 2.0 0.00 0.06 0.06 68 1019.8
20260503212316 55 140 1.0 2.0 0.00 0.06 0.06 70 1019.7
20260503211316 54 183 1.0 2.0 0.00 0.06 0.06 70 1019.7
20260503210817 54 221 0.0 1.0 0.00 0.06 0.06 70 1019.7
20260503210317 54 183 0.0 1.0 0.00 0.06 0.06 71 1019.8
20260503205817 53 96 0.0 1.0 0.00 0.06 0.06 71 1019.9
20260503205317 53 101 1.0 1.0 0.00 0.06 0.06 74 1019.8
20260503204817 53 225 1.0 1.0 0.00 0.06 0.06 75 1019.8
20260503203817 52 225 0.0 2.0 0.00 0.06 0.06 74 1019.8
20260503203317 53 270 1.0 2.0 0.00 0.06 0.06 74 1019.9
20260503202317 53 4 0.0 1.0 0.00 0.06 0.06 73 1019.9
20260503201817 53 270 1.0 1.0 0.00 0.06 0.06 71 1019.7
20260503201317 53 84 0.0 1.0 0.00 0.06 0.06 71 1019.9
20260503200317 53 90 0.0 2.0 0.00 0.06 0.06 75 1019.7
20260503195817 53 0 0.0 1.0 0.00 0.06 0.06 75 1019.8
20260503195317 53 15 1.0 3.0 0.00 0.06 0.06 74 1019.7
20260503194816 53 90 1.0 1.0 0.00 0.06 0.06 74 1019.7
20260503194316 53 0 0.0 1.0 0.00 0.06 0.06 73 1019.7
20260503193816 53 90 1.0 1.0 0.00 0.06 0.06 73 1019.6
20260503193316 54 90 1.0 1.0 0.00 0.06 0.06 70 1019.5
20260503192816 54 90 0.0 1.0 0.00 0.06 0.06 70 1019.4
20260503192325 55 0 0.0 1.0 0.00 0.06 0.06 69 1019.5
20260503191816 55 90 1.0 2.0 0.00 0.06 0.06 68 1019.3
20260503191316 55 84 1.0 1.0 0.00 0.06 0.06 67 1019.3
20260503190316 57 90 1.0 114.0 0.00 0.06 0.06 64 1019.1
20260503185318 57 79 1.0 1.0 0.00 0.06 0.06 64 1019.0
20260503184817 58 0 0.0 1.0 0.00 0.06 0.06 63 1018.8
20260503184316 58 135 0.0 1.0 0.00 0.06 0.06 62 1018.8
20260503183816 59 0 0.0 1.0 0.00 0.06 0.06 62 1018.7
20260503183317 60 315 0.0 2.0 0.00 0.06 0.06 61 1018.6
20260503182825 60 0 1.0 2.0 0.00 0.06 0.06 61 1018.5
20260503182316 60 90 1.0 2.0 0.00 0.06 0.06 62 1018.6
20260503181817 59 357 1.0 2.0 0.00 0.06 0.06 62 1018.4
20260503181316 58 182 1.0 2.0 0.00 0.06 0.06 63 1018.3
20260503180316 60 0 1.0 1.0 0.00 0.06 0.06 61 1018.2
20260503175816 60 15 1.0 2.0 0.00 0.06 0.06 61 1018.3
20260503175317 61 315 1.0 1.0 0.00 0.06 0.06 60 1018.1
20260503174817 62 0 0.0 1.0 0.00 0.06 0.06 55 1018.2
20260503174317 64 0 1.0 1.0 0.00 0.06 0.06 53 1018.1
20260503173816 65 90 1.0 1.0 0.00 0.06 0.06 51 1018.1
20260503173317 67 84 1.0 1.0 0.00 0.06 0.06 48 1018.0
20260503171816 68 226 1.0 1.0 0.00 0.06 0.06 42 1017.9
20260503171316 68 225 1.0 2.0 0.00 0.06 0.06 42 1017.9
20260503170819 68 246 1.0 2.0 0.00 0.06 0.06 41 1017.8
20260503150816 73 180 8.0 45.0 0.00 0.06 0.06 30 1017.4
20260503131316 76 179 3.0 8.0 0.00 0.06 0.06 28 1017.7
20260503130818 76 315 5.0 10.0 0.00 0.06 0.06 28 1017.6
20260503130317 76 205 2.0 6.0 0.00 0.06 0.06 30 1017.7
20260503110817 75 191 3.0 5.0 0.00 0.00 0.00 26 1018.2
20260503110316 74 200 3.0 5.0 0.00 0.00 0.00 26 1018.2
20260503081316 69 218 3.0 7.0 0.00 0.00 0.00 24 1019.4
20260503080816 69 180 5.0 7.0 0.00 0.00 0.00 24 1019.4
20260503080317 69 225 6.0 7.0 0.00 0.00 0.00 25 1019.4
20260503072817 66 224 2.0 7.0 0.00 0.00 0.00 34 1019.4
20260503071316 63 183 3.0 5.0 0.00 0.00 0.00 40 1019.7
20260503070816 62 225 1.0 2.0 0.00 0.00 0.00 42 1019.5
20260503070316 62 223 1.0 3.0 0.00 0.00 0.00 47 1019.6
20260503060319 54 135 1.0 2.0 0.00 0.00 0.00 53 1020.1
20260503054316 52 128 1.0 1.0 0.00 0.00 0.00 63 1020.2
20260503053816 51 90 1.0 2.0 0.00 0.00 0.00 66 1020.3
20260503052816 49 315 1.0 1.0 0.00 0.00 0.00 74 1020.0
20260503052316 48 180 0.0 0.0 0.00 0.00 0.00 78 1020.0
20260503051817 47 90 0.0 1.0 0.00 0.00 0.00 80 1019.9
20260503051317 45 90 1.0 1.0 0.00 0.00 0.00 81 1020.0
20260503050816 43 135 1.0 1.0 0.00 0.00 0.00 86 1020.1
20260503050316 42 315 0.0 1.0 0.00 0.00 0.00 85 1020.1
20260503045816 41 315 0.0 1.0 0.00 0.00 0.00 85 1020.1
20260503045316 40 135 0.0 1.0 0.00 0.00 0.00 84 1020.1
20260503044317 40 270 0.0 1.0 0.00 0.00 0.00 84 1020.0
20260503043817 40 315 0.0 1.0 0.00 0.00 0.00 84 1020.3
20260503043316 40 221 0.0 1.0 0.00 0.00 0.00 84 1020.2
20260503042817 40 180 0.0 1.0 0.00 0.00 0.00 84 1020.2
20260503041817 39 276 1.0 1.0 0.00 0.00 0.00 84 1020.2
20260503041318 39 90 1.0 1.0 0.00 0.00 0.00 83 1020.1
20260503040816 39 328 1.0 2.0 0.00 0.00 0.00 83 1020.1
20260503035816 39 90 1.0 1.0 0.00 0.00 0.00 82 1020.1
20260503034816 39 90 0.0 1.0 0.00 0.00 0.00 81 1020.1
20260503034325 39 90 1.0 1.0 0.00 0.00 0.00 81 1020.1
20260503033816 39 315 0.0 1.0 0.00 0.00 0.00 81 1020.0
20260503032816 40 90 1.0 1.0 0.00 0.00 0.00 80 1020.0
20260503032316 40 90 1.0 1.0 0.00 0.00 0.00 80 1019.9
20260503031816 41 90 0.0 1.0 0.00 0.00 0.00 80 1020.0
20260503031316 41 0 1.0 2.0 0.00 0.00 0.00 81 1020.1
20260503030815 41 0 1.0 2.0 0.00 0.00 0.00 81 1020.0
20260503030317 42 180 1.0 1.0 0.00 0.00 0.00 81 1020.1
20260503025816 42 274 0.0 1.0 0.00 0.00 0.00 81 1020.0
20260503025316 42 79 1.0 2.0 0.00 0.00 0.00 81 1020.2
20260503024316 41 90 1.0 2.0 0.00 0.00 0.00 82 1020.2
20260503023816 40 315 0.0 1.0 0.00 0.00 0.00 82 1020.2
20260503023317 40 0 1.0 1.0 0.00 0.00 0.00 82 1020.3
20260503022816 40 90 1.0 2.0 0.00 0.00 0.00 81 1020.3
20260503022316 40 90 1.0 3.0 0.00 0.00 0.00 81 1020.2
20260503021816 40 318 1.0 3.0 0.00 0.00 0.00 81 1020.3
20260503021315 40 93 1.0 2.0 0.00 0.00 0.00 81 1020.3
20260503020816 41 90 0.0 1.0 0.00 0.00 0.00 81 1020.4
20260503020316 41 90 0.0 2.0 0.00 0.00 0.00 82 1020.3
20260503015816 41 90 1.0 1.0 0.00 0.00 0.00 82 1020.4
20260503014816 40 322 1.0 1.0 0.00 0.00 0.00 82 1020.6
20260503014316 40 315 0.0 1.0 0.00 0.00 0.00 82 1020.6
20260503013316 40 318 1.0 2.0 0.00 0.00 0.00 81 1020.8
20260503012317 40 90 1.0 1.0 0.00 0.00 0.00 81 1020.9
20260503011825 41 90 1.0 1.0 0.00 0.00 0.00 81 1020.9
20260503011317 41 90 1.0 2.0 0.00 0.00 0.00 81 1021.0
20260503010825 41 90 1.0 2.0 0.00 0.00 0.00 81 1020.9
20260503010316 42 270 0.0 1.0 0.00 0.00 0.00 81 1020.9
20260503004819 41 11 1.0 1.0 0.00 0.00 0.00 81 1021.2
20260503004316 41 0 1.0 2.0 0.00 0.00 0.00 81 1021.2
20260503003315 41 274 0.0 1.0 0.00 0.00 0.00 81 1021.3
20260503002820 41 315 0.0 1.0 0.00 0.00 0.00 81 1021.3
20260503002325 41 309 0.0 2.0 0.00 0.00 0.00 80 1021.2